Weather reports worldwide

Advertisment
Socoa, France (7600): temperature & dewpoint: 09.08.2020 21:00:00 - 15.08.2020 21:00:00 (CEST)Socoa, France (7600): wind speed & gusts: 09.08.2020 21:00:00 - 15.08.2020 21:00:00 (CEST)Socoa, France (7600): wind direction: 09.08.2020 21:00:00 - 15.08.2020 21:00:00 (CEST)Socoa, France (7600): reduced air pressure: 09.08.2020 21:00:00 - 15.08.2020 21:00:00 (CEST)Socoa, France (7600): visibility: 09.08.2020 21:00:00 - 15.08.2020 21:00:00 (CEST)Socoa, France (7600): precipitation: 09.08.2020 21:00:00 - 15.08.2020 21:00:00 (CEST)
Date & Time tt [°C] td [°C] ff [km/h] ff [kn] fx [km/h] fx [kn] dd ppp [hPa] vv [km] rr [mm]
15.08.2020 21:00:00 - - - - - - - - - -
15.08.2020 20:00:00 21,4 18,8 36 19 47 25 WNW 1012,9 8 0,0
15.08.2020 19:00:00 22,4 19,4 30 16 42 23 WNW 1012,0 - 0,0
15.08.2020 18:00:00 24,1 19,4 21 12 31 17 W 1011,9 - 0,0
15.08.2020 17:00:00 25,2 20,0 22 12 33 18 WNW 1012,1 22 0,0
15.08.2020 16:00:00 25,2 20,0 19 10 28 15 WNW 1012,3 - 0,0
15.08.2020 15:00:00 25,7 20,3 13 7 19 10 WNW 1012,6 - 0,0
15.08.2020 14:00:00 24,7 20,2 14 7 23 13 WNW 1012,8 - 0,0
15.08.2020 13:00:00 24,5 20,0 18 10 24 13 W 1013,2 - 0,0
15.08.2020 12:00:00 24,2 19,9 15 8 20 11 W 1013,4 - 0,0
15.08.2020 11:00:00 23,7 18,8 12 6 16 9 WNW 1013,6 - 0,0
15.08.2020 10:00:00 24,4 19,0 3 2 9 5 NNW 1013,5 - 0,0
15.08.2020 09:00:00 21,4 18,6 4 2 9 5 S 1013,4 - 0,0
15.08.2020 08:00:00 20,3 17,7 4 2 11 6 SSE 1013,3 - 0,0
15.08.2020 07:00:00 20,2 17,6 9 5 13 7 S 1013,2 - 0,0
15.08.2020 06:00:00 20,2 17,6 10 5 18 10 SW 1013,4 - 0,0
15.08.2020 05:00:00 - - - - - - - - - -
15.08.2020 04:00:00 - - - - - - - - - -
15.08.2020 03:00:00 20,2 17,4 9 5 13 7 SW 1014,8 - 0,0
15.08.2020 02:00:00 20,8 17,6 7 4 16 9 SW 1015,3 18 0,0
15.08.2020 01:00:00 21,5 17,7 8 5 16 8 W 1015,9 - 0,0
15.08.2020 00:00:00 21,7 17,9 10 5 17 9 WNW 1016,1 - 0,0
14.08.2020 23:00:00 21,7 17,9 10 6 18 10 NNW 1016,2 15 0,0
14.08.2020 22:00:00 21,8 18,0 14 8 18 10 NNW 1016,1 - 0,0
14.08.2020 21:00:00 22,1 17,9 10 5 18 10 NNW 1015,7 - 0,0
14.08.2020 20:00:00 23,0 17,5 13 7 25 14 N 1015,3 - 0,0
14.08.2020 19:00:00 23,1 17,1 15 8 25 14 N 1015,2 - 0,0
14.08.2020 18:00:00 23,3 17,5 19 11 39 21 N 1015,2 - 0,0
14.08.2020 17:00:00 23,3 18,0 33 18 41 22 N 1015,3 24 0,0
14.08.2020 16:00:00 26,4 18,0 25 13 34 19 NNE 1015,5 - 0,0
14.08.2020 15:00:00 26,2 18,1 15 8 23 12 N 1016,1 - 0,0
14.08.2020 14:00:00 25,2 17,4 10 5 24 13 NNE 1016,8 - 0,0
14.08.2020 13:00:00 23,7 17,0 12 7 21 11 E 1017,4 - 0,0
14.08.2020 12:00:00 22,2 16,2 14 8 28 15 E 1018,0 - 0,0
14.08.2020 11:00:00 21,3 16,7 18 10 27 14 E 1017,9 20 0,0
14.08.2020 10:00:00 20,2 17,0 9 5 17 9 ESE 1018,1 - 0,0
14.08.2020 09:00:00 18,7 16,3 4 2 9 5 SE 1018,3 - 0,0
14.08.2020 08:00:00 17,1 15,3 5 3 9 5 SSE 1018,2 - 0,0
14.08.2020 07:00:00 17,3 15,3 5 3 12 7 S 1018,1 - 0,0
14.08.2020 06:00:00 18,4 16,0 9 5 13 7 S 1018,2 - 0,0
14.08.2020 05:00:00 19,1 16,1 9 5 16 9 SSW 1018,7 18 0,0
14.08.2020 04:00:00 19,3 16,3 12 7 18 10 SW 1019,0 - 0,0
14.08.2020 03:00:00 19,6 16,2 11 6 20 11 SSW 1019,2 - 0,0
14.08.2020 02:00:00 19,9 16,3 12 7 18 10 SSW 1019,6 18 0,0
14.08.2020 01:00:00 20,1 16,1 11 6 16 9 SW 1019,8 - 0,0
14.08.2020 00:00:00 20,3 16,3 6 4 12 7 SW 1019,8 - 0,0
13.08.2020 23:00:00 20,8 16,2 6 3 14 8 W 1019,7 - 0,0
13.08.2020 22:00:00 21,0 16,4 8 4 18 10 WNW 1019,5 - 0,0
13.08.2020 21:00:00 21,2 16,2 14 7 21 12 WNW 1019,2 - 0,0
13.08.2020 20:00:00 21,7 16,6 11 6 19 10 W 1018,8 20 0,0
13.08.2020 19:00:00 22,2 16,2 13 7 22 12 WNW 1018,6 - 0,0
13.08.2020 18:00:00 22,6 16,8 15 8 28 15 W 1018,8 - 0,0
13.08.2020 17:00:00 22,5 16,5 22 12 36 19 WNW 1018,8 20 0,0
13.08.2020 16:00:00 23,6 16,6 29 16 43 23 WNW 1018,6 - 0,0
13.08.2020 15:00:00 23,4 17,2 34 18 42 23 W 1018,5 - 0,0
13.08.2020 14:00:00 23,5 16,8 29 16 40 22 W 1018,6 20 0,0
13.08.2020 13:00:00 23,0 16,8 19 10 35 19 W 1018,4 - 0,0
13.08.2020 12:00:00 21,6 16,3 28 15 42 23 W 1018,2 - 0,0
13.08.2020 11:00:00 22,0 15,6 21 11 32 17 WSW 1017,7 - 0,0
13.08.2020 10:00:00 21,3 15,6 16 9 28 15 WSW 1017,4 - 0,0
13.08.2020 09:00:00 20,6 15,2 13 7 35 19 SW 1017,0 - 0,0
13.08.2020 08:00:00 20,4 15,2 26 14 39 21 WSW 1016,6 - 0,0
13.08.2020 07:00:00 20,5 15,5 27 15 43 23 WSW 1016,2 - 0,0
13.08.2020 06:00:00 20,8 15,3 29 16 51 28 W 1015,9 - 0,0
13.08.2020 05:00:00 21,0 16,0 36 19 51 28 W 1015,5 18 0,0
13.08.2020 04:00:00 19,7 18,0 9 5 15 8 SSW 1015,2 - 0,0
13.08.2020 03:00:00 19,8 17,6 7 4 26 14 S 1015,2 - 0,0
13.08.2020 02:00:00 20,0 17,4 15 8 32 17 SW 1015,2 18 0,0
13.08.2020 01:00:00 20,2 18,1 14 7 50 27 SW 1015,0 - 0,2
13.08.2020 00:00:00 20,8 19,1 32 17 56 31 W 1015,2 - 1,0
12.08.2020 23:00:00 21,6 17,4 27 15 39 21 W 1014,9 - 0,2
12.08.2020 22:00:00 22,8 17,7 9 5 46 25 WSW 1013,2 - 0,2
12.08.2020 21:00:00 24,4 15,9 27 15 47 25 WSW 1012,3 - 0,0
12.08.2020 20:00:00 24,4 18,6 16 9 42 23 W 1010,6 15 0,0
12.08.2020 19:00:00 27,2 12,4 24 13 - - S 1011,2 - 0,0
12.08.2020 18:00:00 - - - - - - - - - -
12.08.2020 17:00:00 26,6 22,2 9 5 16 9 NW 1010,8 - 0,0
12.08.2020 16:00:00 28,1 23,0 11 6 22 12 N 1010,7 - 0,0
12.08.2020 15:00:00 27,9 23,1 18 10 31 17 NNW 1011,3 - 0,0
12.08.2020 14:00:00 31,8 19,1 22 12 51 28 S 1011,1 - 0,0
12.08.2020 13:00:00 31,0 15,4 26 14 49 27 S 1011,4 - 0,0
12.08.2020 12:00:00 29,3 17,2 22 12 42 23 S 1011,6 - 0,0
12.08.2020 11:00:00 27,5 22,7 9 5 16 9 NE 1011,7 20 0,0
12.08.2020 10:00:00 24,9 22,0 4 2 13 7 ENE 1011,8 - 0,0
12.08.2020 09:00:00 21,9 20,0 8 4 14 7 S 1011,9 - 0,0
12.08.2020 08:00:00 21,8 19,9 8 5 19 10 SW 1012,1 - 0,0
12.08.2020 07:00:00 22,3 20,4 6 3 19 10 W 1011,5 - 0,2
12.08.2020 06:00:00 22,5 20,4 16 8 25 13 W 1011,8 - 0,0
12.08.2020 05:00:00 22,2 19,4 16 9 22 12 W 1011,5 18 0,0
12.08.2020 04:00:00 22,1 19,5 10 6 21 11 SW 1012,5 - 0,0
12.08.2020 03:00:00 22,4 20,1 11 6 19 10 W 1012,8 - 0,0
12.08.2020 02:00:00 22,4 20,1 15 8 21 11 WSW 1012,4 - 0,0
12.08.2020 01:00:00 22,2 20,3 8 5 14 7 S 1012,8 - 0,0
12.08.2020 00:00:00 22,3 20,4 8 4 16 9 SSE 1013,0 - 0,0
11.08.2020 23:00:00 22,4 20,3 9 5 18 10 SSE 1012,9 - 0,0
11.08.2020 22:00:00 22,4 20,7 12 7 20 11 ESE 1012,1 - 0,0
11.08.2020 21:00:00 23,2 21,5 14 7 19 11 ESE 1011,6 - 0,0
11.08.2020 20:00:00 24,1 22,2 6 3 27 14 S 1012,6 15 1,8
11.08.2020 19:00:00 24,6 21,3 18 10 44 24 WSW 1013,4 - 1,0
11.08.2020 18:00:00 25,5 22,4 29 16 42 23 WSW 1013,3 - 0,0
11.08.2020 17:00:00 26,0 22,5 16 9 24 13 W 1012,3 - 0,0
11.08.2020 16:00:00 28,2 22,9 7 4 19 10 NE 1011,4 - 0,0
11.08.2020 15:00:00 27,8 22,5 11 6 30 16 N 1011,4 - 0,0
11.08.2020 14:00:00 30,5 22,1 16 9 29 16 NE 1011,4 22 0,0
11.08.2020 13:00:00 30,1 22,0 11 6 24 13 NE 1011,4 - 0,0
11.08.2020 12:00:00 29,2 21,4 13 7 26 14 E 1011,7 - 0,0
11.08.2020 11:00:00 24,8 21,1 20 11 35 19 E 1012,0 15 0,0
11.08.2020 10:00:00 24,0 20,5 21 12 31 17 E 1012,7 - 0,0
11.08.2020 09:00:00 22,9 20,8 8 4 21 11 ENE 1013,2 - 0,0
11.08.2020 08:00:00 21,9 20,4 10 5 15 8 SE 1013,6 - 0,0
11.08.2020 07:00:00 21,8 20,4 9 5 13 7 ESE 1013,4 - 0,0
11.08.2020 06:00:00 21,6 20,4 7 4 13 7 SE 1013,3 - 0,0
11.08.2020 05:00:00 21,8 20,6 6 3 11 6 SE 1013,3 15 0,0
11.08.2020 04:00:00 22,0 20,8 5 3 8 4 E 1013,5 - 0,0
11.08.2020 03:00:00 22,1 20,7 3 2 8 4 S 1014,0 - 0,0
11.08.2020 02:00:00 22,2 20,7 2 1 8 4 SSW 1014,4 15 0,0
11.08.2020 01:00:00 22,4 20,7 3 2 14 8 SW 1014,6 - 0,0
11.08.2020 00:00:00 22,8 20,3 8 4 14 7 W 1014,3 - 0,0
10.08.2020 23:00:00 23,1 20,4 6 3 12 7 NNW 1014,1 18 0,0
10.08.2020 22:00:00 23,1 20,4 5 3 20 11 W 1013,3 - 0,0
10.08.2020 21:00:00 23,3 20,4 14 8 20 11 WNW 1013,3 - 0,0
10.08.2020 20:00:00 23,5 20,2 12 7 19 10 W 1013,0 17 0,0
10.08.2020 19:00:00 23,9 20,6 14 7 19 10 NW 1012,8 - 0,0
10.08.2020 18:00:00 24,7 20,8 10 5 16 9 NW 1012,4 - 0,0
10.08.2020 17:00:00 25,3 20,8 10 5 14 8 NW 1012,5 17 0,0
10.08.2020 16:00:00 26,0 20,8 9 5 16 9 NNW 1013,0 - 0,0
10.08.2020 15:00:00 25,2 20,5 7 4 16 8 N 1013,4 - 0,0
10.08.2020 14:00:00 25,3 20,8 11 6 17 9 NW 1013,6 16 0,0
10.08.2020 13:00:00 25,9 20,9 11 6 18 10 NW 1013,5 - 0,0
10.08.2020 12:00:00 23,6 20,3 10 5 16 9 W 1013,6 - 0,0
10.08.2020 11:00:00 24,4 20,3 9 5 14 8 WNW 1013,6 - 0,0
10.08.2020 10:00:00 23,6 20,1 10 5 21 11 W 1013,8 - 0,0
10.08.2020 09:00:00 22,8 19,8 15 8 20 11 W 1013,8 - 0,0
10.08.2020 08:00:00 22,4 19,8 10 6 18 10 W 1013,5 16 0,0
10.08.2020 07:00:00 22,3 19,8 13 7 18 10 W 1013,2 - 0,0
10.08.2020 06:00:00 22,4 19,9 10 6 21 11 W 1013,4 - 0,0
10.08.2020 05:00:00 22,3 20,2 12 6 24 13 WSW 1013,5 18 0,0
10.08.2020 04:00:00 22,1 20,7 16 9 27 15 W 1013,7 - 0,0
10.08.2020 03:00:00 22,2 20,8 12 7 22 12 WSW 1013,7 - 0,0
10.08.2020 02:00:00 22,8 20,5 14 7 26 14 WSW 1014,2 18 0,0
10.08.2020 01:00:00 23,1 20,4 8 4 23 12 W 1014,4 - 0,0
10.08.2020 00:00:00 23,2 20,5 17 9 27 15 WSW 1014,7 - 0,0
09.08.2020 23:00:00 23,4 20,5 16 9 31 17 W 1014,6 - 0,0
09.08.2020 22:00:00 23,6 20,7 23 12 33 18 W 1014,9 - 0,0
09.08.2020 21:00:00 23,8 20,9 24 13 31 17 W 1013,8 - 0,0

tt = temperature
td = dewpoint
ff = wind speed
fx = gusts
dd = wind direction
ppp = reduced air pressure
vv = visibility
rr = precipitation

Next stations